Tracking 27380 objects as of 6-Jun-2023
HD Live streaming from Space Station
objects crossing your sky now

OPS 4682 DEB

Track OPS 4682 DEB now!
10-day predictions


NORAD ID: 38387
Int'l Code: 1965-027CQ
Perigee: 1,267.4 km
Apogee: 1,302.9 km
Inclination: 90.3 °
Period: 111.1 minutes
Semi major axis: 7656 km
RCS: 0.0137 m2 (small)
Launch date: April 3, 1965
Source: United States (US)
Launch site: AIR FORCE WESTERN TEST RANGE (AFWTR)

Note: This is SATELLITE DEBRIS
Your satellite tracking list
Your tracking list is empty




NASA's NSSDC Master Catalog

Two Line Element Set (TLE):
1 38387U 65027CQ  23156.24163091 -.00000023  00000-0 -10826-3 0  9999
2 38387  90.2545 340.3511 0023243 134.7128 225.5889 12.95948169460310
Source of the keplerian elements: AFSPC